Вернуться в каталог

NOAA 16 DEB

АктивенSSO
NORAD 41085·DEBRIS·🇺🇸 United States

Запущен Sep 21, 2000 с Vandenberg Space Force Base

Loading…

Ближайшие Пролёты (ближайшие 24 часа)

TLE

СвежийSource: Space-Track

Эпоха: Sep 14, 2026, 11:25 UTC

1 41085U 00055AU  26257.47635168  .00000815  00000-0  37289-3 0  9996
2 41085  98.6991 346.0378 0018943 349.6943  10.3844 14.24074240558978

Отслеживайте NOAA 16 DEB в реальном времени с AllMySat

Download on the App Store